Regional Weather Roundup
Issued by NWS Austin/San Antonio, TX

Home | Current Version | Previous Version | Text Only | Print | Product List | Glossary On
Versions: 1 2 3 4 5 6 7 8 9 10 11 12 13 14 15 16 17 18 19 20 21 22 23 24 25 26 27 28 29 30 31 32 33 34 35 36 37 38 39 40 41 42 43 44 45 46 47 48 49 50
000
ASUS44 KEWX 230301
RWREWX
SOUTH TEXAS REGIONAL WEATHER ROUNDUP
NATIONAL WEATHER SERVICE AUSTIN/SAN ANTONIO TX
900 PM CST THU FEB 22 2018

NOTE: "FAIR" INDICATED FEW OR NO CLOUDS BELOW 12,000 FEET WITH NO
SIGNIFICANT WEATHER AND/OR OBSTRUCTIONS TO VISIBILITY.

* - THESE STATIONS ARE NOT NWS OR FAA STATIONS...AND ARE NOT SUBJECT
    TO NWS AND FAA QUALITY CONTROL.

TXZ171-172-183>190-230400-
TEXAS HILL COUNTRY AND EDWARDS PLATEAU

CITY           SKY/WX    TMP DP  RH WIND       PRES   REMARKS
JUNCTION       NOT AVBL
*LLANO         CLOUDY    43  39  87 CALM      30.27R
BURNET         LGT RAIN  41  39  93 NE3       30.23F FOG
*HORSESHOE BAY LGT RAIN  41  41 100 CALM      30.23S
*KERRVILLE     CLOUDY    49  46  90 SE3       30.20R FOG
*FREDERICKSBRG CLOUDY    42  41  95 CALM      30.20F FOG
*ROCKSPRINGS   FOG       46  46 100 NE5       30.22S VSB 3/4 WCI  44
*BOERNE STAGE  CLOUDY    46  46 100 CALM      30.22R
*CASTROVILLE   CLOUDY    51  50  98 E8        30.21R
HONDO          CLOUDY    54  51  90 E7        30.19R
*UVALDE        CLOUDY    52  48  88 E3        30.20R
DEL RIO        CLOUDY    53  46  77 N5        30.16S
LAUGHLIN AFB   CLOUDY    54  48  82 CALM      30.17R
CARRIZO SPRGS  CLOUDY    54  50  87 E5        30.19R
*EAGLE PASS    CLOUDY    57  48  72 E8        30.17S
*FAITH RANCH   CLOUDY    55  50  82 E8        30.17S
$$

TXZ173-191>194-202-209-217>225-228-230400-
CENTRAL AND SOUTH CENTRAL TEXAS

CITY           SKY/WX    TMP DP  RH WIND       PRES   REMARKS
GEORGETOWN     CLOUDY    41  40  96 N6        30.26R WCI  37
AUSTIN/BERGSTM DRIZZLE   43  43 100 N10       30.24R FOG     WCI  37
AUSTIN/MABRY   CLOUDY    43  42  97 N6        30.25S FOG     WCI  39
*AUSTIN/EXEC   NOT AVBL
*LAGO VISTA    CLOUDY    41  41 100 N5        30.23R FOG     WCI  38
SAN MARCOS     CLOUDY    44  43  96 N10       30.24S FOG     WCI  39
NEW BRAUNFELS  CLOUDY    44  43  96 NE13      30.21R FOG     WCI  38
RANDOLPH AFB   LGT RAIN  46  45  96 N9        30.21R FOG     WCI  41
PT SAN ANTONIO DRIZZLE   50  48  93 NE7       30.19R FOG     WCI  47
SAN ANTONIO    DRZL/FOG  48  46  93 NE7       30.21R VSB 1   WCI  45
STINSON FIELD  LGT RAIN  49  48  97 NE6       30.19R FOG     WCI  46
*LA GRANGE     LGT RAIN  45  45 100 N6        30.22R WCI  41
*GIDDINGS      DRIZZLE   40  39  99 N5        30.24S WCI  36
*GONZALES      CLOUDY    45  45 100 N7        30.21F FOG     WCI  41
$$

TXZ163>164-176>182-195>201-210>213-226-227-235-230400-
SOUTHEAST TEXAS

CITY           SKY/WX    TMP DP  RH WIND       PRES   REMARKS
COLLEGE STN    CLOUDY    44  44 100 N6        30.25R FOG     WCI  41
*BRYAN         CLOUDY    43  43 100 N5        30.26R FOG     WCI  40
*CALDWELL      CLOUDY    42  42  99 N8        30.25S FOG     WCI  37
*CROCKETT      CLOUDY    46  46 100 N5        30.26S WCI  44
*BRENHAM       CLOUDY    45  45 100 N9        30.25R FOG     WCI  40
HUNTSVILLE     CLOUDY    50  49  96 N3        30.22S FOG
CONROE         CLOUDY    54  54 100 N5        30.21R FOG
HOUSTON BUSH   LGT RAIN  63  62  97 NW6       30.19R FOG
HOUSTON HOBBY  CLOUDY    72  72 100 S12       30.18R FOG
*HOUSTON SW AP CLOUDY    65  65  99 NW6       30.20R FOG
PEARLAND       LGT RAIN  72  72 100 S12       30.20R
HOUSTON HOOKS  CLOUDY    55  55 100 NW7       30.21R FOG
ELLINGTON FLD  CLOUDY    72  70  94 S9        30.20R
SUGAR LAND     CLOUDY    58  56  93 NW7       30.20R FOG
*HOUSTON EXEC  CLOUDY    50  50 100 N7        30.23R FOG     WCI  47
*CLEVELAND MUN CLOUDY    72  69  92 S8        30.20R FOG
*WHARTON       FOG       52  51  97 N8        30.22R VSB 1
*COLUMBUS      CLOUDY    46  45  95 N8        30.23R FOG     WCI  42
*EAGLE LAKE    CLOUDY    49  49 100 N6        30.23R FOG     WCI  47
$$

TXZ214>216-236>238-230400-
THE UPPER TEXAS COAST

CITY           SKY/WX    TMP DP  RH WIND       PRES   REMARKS
*ORANGE        CLOUDY    72  72 100 S7        30.24R
PORT ARTHUR    CLOUDY    72  70  93 S12       30.21R
GALVESTON      CLOUDY    71  70  96 SE12      30.20R FOG
ANGLETON       CLOUDY    74  70  87 S13       30.19R
*BAY CITY      CLOUDY    69  69 100 CALM      30.19R FOG
PALACIOS       FOG       58  58 100 N9        30.19R VSB 1/2
$$

TXZ229>234-239>247-230400-
TEXAS COASTAL BEND AND RIO GRANDE PLAINS

CITY           SKY/WX    TMP DP  RH WIND       PRES   REMARKS
VICTORIA       CLOUDY    50  48  93 N10       30.21R FOG     WCI  46
*BEEVILLE      CLOUDY    48  48 100 NE7       30.19R FOG     WCI  45
ROCKPORT       CLOUDY    56  55  97 N9        30.19R FOG
*PORT ARANSAS  NOT AVBL
*PORT LAVACA   FOG       54  52  95 N9        30.20R VSB 3/4
*INGLESIDE     CLOUDY    56  55  95 MISG      30.18S FOG
CORPUS CHRISTI CLOUDY    54  54 100 N7        30.18R FOG
CORPUS NAS     DRIZZLE   57  57 100 N12       30.17R FOG
*ROBSTOWN      CLOUDY    53  53  99 NE6       30.18S FOG
ALICE          CLOUDY    52  51  97 N7        30.18R FOG
KINGSVILLE NAS DRIZZLE   54  53  97 NE8       30.17S FOG
COTULLA        CLOUDY    51  50  96 E5        30.20R FOG
LAREDO         LGT RAIN  54  51  90 N9        30.17S
$$

TXZ248>255-230400-
DEEP SOUTH TEXAS

CITY           SKY/WX    TMP DP  RH WIND       PRES   REMARKS
BROWNSVILLE    CLOUDY    65  64  97 NE5       30.15S FOG
PORT ISABEL    FOG       62  60  93 NE9       30.15R VSB 1/2
*SOUTH PADRE   NOT AVBL
HARLINGEN      CLOUDY    60  60 100 N7        30.15R FOG
*HEBBRONVILLE  CLOUDY    53  52  97 CALM      30.20R FOG
MCALLEN        CLOUDY    59  57  93 NW6       30.19R FOG
*WESLACO       LGT RAIN  57  56  96 N6        30.17R
FALFURRIAS     CLOUDY    55  53  94 CALM      30.19R
EDINBURG       CLOUDY    58  56  94 NW6       30.19R FOG
*ZAPATA        LGT RAIN  55  55  99 E9        30.14F
$$

TXZ213>215-236>238-242>244-246-247-251-254-255-230400-
CMAN STATIONS

STATION/POSITION TIME  TEMP    WIND        PRES    WAVE
                       AIR SEA DIR/SP/G            HT/PER
                 (UTC) (F)     (DEG/KT/KT) (MB)    (FT/S)
SABINE PASS      0230   69 71  140/ 10/ 13 1024.7
SEA RIM ST PARK  0200   69     140/  8/ 10 1023.1
NORTH JETTY/GLS  0224      65  140/ 13/ 14 1022.1
EAGLE POINT      0224   70 71  160/ 11/ 13 1022.5
MORGANS POINT    0230   69 65  160/  7/ 10 1022.3
PORT O`CONNOR    0224   60 63  360/  7/  8 1021.6
MALAQUITE BEACH  0230   87 62  350/  7/ 10 1021.5
BAFFIN BAY       0230   57 66  330/  6/  8 1022.0
PORT ISABEL      0230   62 66   20/  5/  8 1020.8
$$



USA.gov is the U.S. government's official web portal to all federal, state and local government web resources and services.